Regional Weather Roundup
Issued by NWS

Home | Current Version | Previous Version | Graphics & Text | Print | Product List | Glossary On
Versions: 1 2 3 4 5 6 7 8 9 10 11 12 13 14 15 16 17 18 19 20 21 22 23 24 25 26 27 28 29 30 31 32 33 34 35 36 37 38 39 40 41 42 43 44 45 46 47 48 49 50
000
ASUS43 KLMK 011702
RWRKY
KENTUCKY REGIONAL WEATHER ROUNDUP
NATIONAL WEATHER SERVICE LOUISVILLE KY
100 PM EDT TUE SEP 01 2015

NOTE "FAIR" INDICATES FEW OR NO CLOUDS BELOW 12,000 FEET
WITH NO SIGNIFICANT WEATHER AND/OR OBSTRUCTIONS TO VISIBILITY.

KYZ001>023-026-027-061>063-070>075-011800-
WESTERN AND SOUTH CENTRAL KENTUCKY

CITY           SKY/WX    TMP DP  RH WIND       PRES   REMARKS
PADUCAH        SUNNY     86  67  52 SE3       30.12F
HENDERSON      MOSUNNY   88  66  48 SW3       30.11F HX  90
OWENSBORO      MOSUNNY   89  67  48 VRB3      30.14F HX  92
HOPKINSVILLE   SUNNY     85  65  52 CALM      30.13F
BOWLING GREEN  MOSUNNY   88  65  46 VRB3      30.14F HX  90
GLASGOW        SUNNY     86  64  47 CALM      30.15F
$$

KYZ024-025-028>034-038-045-046-053-011800-
NORTH CENTRAL KENTUCKY

CITY           SKY/WX    TMP DP  RH WIND       PRES   REMARKS
LOUISVILLE/SDF MOSUNNY   87  65  47 VRB3      30.13F
LOUISVILLE/LOU MOSUNNY   87  64  46 NW6       30.14F
FORT KNOX      MOSUNNY   86  66  51 VRB2      30.13F
$$

KYZ035>037-039>044-047>052-055>060-089>105-011800-
NORTHEAST KENTUCKY

CITY           SKY/WX    TMP DP  RH WIND       PRES   REMARKS
LEXINGTON      MOSUNNY   85  64  49 CALM      30.16F
COVINGTON      PTSUNNY   87  65  47 VRB3      30.15F
FRANKFORT      SUNNY     84  64  50 CALM      30.15F
$$

KYZ054-064>069-076>088-106>120-011800-
SOUTHEAST KENTUCKY

CITY           SKY/WX    TMP DP  RH WIND       PRES   REMARKS
JACKSON        PTSUNNY   80  68  66 CALM      30.18F
LONDON         MOSUNNY   83  62  49 E3        30.17F
SOMERSET       NOT AVBL
MIDDLESBORO    SUNNY     83  67  57 CALM      30.16F
MONTICELLO     MOSUNNY   87  67  51 VRB6      30.18F HX  90
$$




USA.gov is the U.S. government's official web portal to all federal, state and local government web resources and services.